Charleston, SC

9:38 PM EST on February 07, 2016 (GMT -0500)
Charleston Air Force Base-International

Weather History for KCHS - August, 2013

Change the Weather History Date:

Monday, August 26, 2013

  Actual Average Record
Temperature  
Mean Temperature 77 °F 80 °F  
Max Temperature 86 °F 89 °F 97 °F (1954)
Min Temperature 68 °F 72 °F 60 °F (1952)
Degree Days  
Heating Degree Days 0 0  
Month to date heating degree days 0 0  
Since 1 June heating degree days 0 1  
Since 1 July heating degree days 0 0  
Cooling Degree Days 12 15  
Month to date cooling degree days 430 420  
Year to date cooling degree days 1770 1732  
Since 1 June cooling degree days 1423 1370  
Growing Degree Days 27 (Base 50)    
Moisture  
Dew Point 65 °F    
Average Humidity 71    
Maximum Humidity 90    
Minimum Humidity 51    
Precipitation  
Precipitation 0.00 in 0.26 in 3.26 in (1958)
Month to date precipitation 3.95 5.92  
Year to date precipitation 46.06 34.41  
Sea Level Pressure  
Sea Level Pressure 30.21 in    
Wind  
Wind Speed 7 mph (NE)    
Max Wind Speed 13 mph    
Max Gust Speed 17 mph    
Visibility 10 miles    
Events      
T = Trace of Precipitation, MM = Missing Value Source: NWS Daily Summary

Daily Weather History Graph

Daily Weather History Graph

Search for Another Location

Airport or City:

Trip Planner

Search our weather history database for the weather conditions in past years. The results will help you decide how hot, cold, wet, or windy it might be!

Date:

Astronomy

Aug. 26, 2013 Rise Set
Actual Time 6:50 AM EDT 7:52 PM EDT
Civil Twilight 6:25 AM EDT 8:17 PM EDT
Nautical Twilight 5:55 AM EDT 8:47 PM EDT
Astronomical Twilight 5:24 AM EDT 9:18 PM EDT
Moon 11:24 PM EDT (8/26) 12:29 PM EDT (8/26)
Length of Visible Light 13h 52m
Length of Day
13h 01m
Waning Gibbous, 67% of the Moon is Illuminated
Aug 26
Waning Gibbous
Aug 28
Last Quarter
Sep 5
New
Sep 12
First Quarter
Sep 19
Full

Hourly Weather History & Observations

Time (EDT) Temp. Heat Index Dew Point Humidity Pressure Visibility Wind Dir Wind Speed Gust Speed Precip Events Conditions
12:56 AM 71.1 °F - 62.1 °F 73% 30.27 in 10.0 mi NNE 8.1 mph - N/A   Scattered Clouds
1:56 AM 70.0 °F - 61.0 °F 73% 30.25 in 10.0 mi NNE 8.1 mph - N/A   Scattered Clouds
2:56 AM 69.1 °F - 61.0 °F 75% 30.24 in 10.0 mi NNE 8.1 mph - N/A   Scattered Clouds
3:56 AM 69.1 °F - 62.1 °F 78% 30.24 in 10.0 mi NE 9.2 mph - N/A   Scattered Clouds
4:56 AM 69.1 °F - 63.0 °F 81% 30.23 in 10.0 mi NNE 9.2 mph - N/A   Mostly Cloudy
5:56 AM 70.0 °F - 63.0 °F 78% 30.24 in 10.0 mi NNE 8.1 mph - N/A   Mostly Cloudy
6:56 AM 68.0 °F - 63.0 °F 84% 30.23 in 10.0 mi NNE 8.1 mph - N/A   Scattered Clouds
7:56 AM 70.0 °F - 63.0 °F 78% 30.23 in 10.0 mi NNE 9.2 mph - N/A   Scattered Clouds
8:56 AM 75.0 °F - 63.0 °F 66% 30.24 in 10.0 mi NNE 8.1 mph - N/A   Scattered Clouds
9:56 AM 78.1 °F - 62.1 °F 58% 30.25 in 10.0 mi NE 8.1 mph - N/A   Scattered Clouds
10:56 AM 81.0 °F 82.7 °F 64.9 °F 58% 30.26 in 10.0 mi ENE 8.1 mph 17.3 mph N/A   Scattered Clouds
11:56 AM 82.9 °F 85.0 °F 66.0 °F 56% 30.26 in 10.0 mi ENE 6.9 mph - N/A   Scattered Clouds
12:56 PM 84.9 °F 87.1 °F 66.0 °F 53% 30.24 in 10.0 mi North 5.8 mph - N/A   Scattered Clouds
1:56 PM 84.9 °F 87.1 °F 66.0 °F 53% 30.22 in 10.0 mi NNE 6.9 mph - N/A   Scattered Clouds
2:56 PM 84.9 °F 86.6 °F 64.9 °F 51% 30.20 in 10.0 mi ENE 4.6 mph - N/A   Mostly Cloudy
3:56 PM 84.0 °F 86.3 °F 66.0 °F 55% 30.17 in 10.0 mi Variable 6.9 mph - N/A   Scattered Clouds
4:56 PM 82.9 °F 84.6 °F 64.9 °F 54% 30.15 in 10.0 mi ESE 10.4 mph - N/A   Mostly Cloudy
5:56 PM 82.0 °F 83.8 °F 64.9 °F 56% 30.14 in 10.0 mi ESE 9.2 mph - N/A   Mostly Cloudy
6:56 PM 79.0 °F - 64.0 °F 60% 30.14 in 10.0 mi ESE 8.1 mph - N/A   Scattered Clouds
7:56 PM 78.1 °F - 66.0 °F 66% 30.15 in 10.0 mi ESE 4.6 mph - N/A   Mostly Cloudy
8:56 PM 77.0 °F - 66.9 °F 71% 30.15 in 10.0 mi ESE 3.5 mph - N/A   Scattered Clouds
9:56 PM 75.9 °F - 68.0 °F 76% 30.16 in 10.0 mi ESE 4.6 mph - N/A   Scattered Clouds
10:56 PM 75.0 °F - 68.0 °F 79% 30.16 in 10.0 mi Calm Calm - N/A   Partly Cloudy
11:56 PM 72.0 °F - 68.0 °F 87% 30.16 in 10.0 mi Calm Calm - N/A   Scattered Clouds